EDT,Max TemperatureF,Mean TemperatureF,Min TemperatureF,Max Dew PointF,MeanDew PointF,Min DewpointF,Max Humidity, Mean Humidity, Min Humidity, Max Sea Level PressureIn, Mean Sea Level PressureIn, Min Sea Level PressureIn, Max VisibilityMiles, Mean VisibilityMiles, Min VisibilityMiles, Max Wind SpeedMPH, Mean Wind SpeedMPH, Max Gust SpeedMPH,PrecipitationIn, CloudCover, Events, WindDirDegrees
2013-5-1,82,65,48,55,51,44,87,65,37,30.23,30.17,30.09,10,8,2,14,3,,0.00,0,,116
2013-5-2,80,67,55,55,48,42,75,52,34,30.25,30.20,30.14,10,10,10,16,7,16,0.00,0,,99
2013-5-3,79,66,55,54,44,30,62,45,19,30.13,30.09,30.06,10,10,10,20,7,28,0.00,1,,107
2013-5-4,73,64,55,46,40,35,69,43,27,30.13,30.09,30.06,10,10,10,15,10,23,0.00,0,,104
2013-5-5,75,62,52,44,39,34,66,43,23,30.11,30.06,30.02,10,10,10,14,9,21,0.00,0,,85
2013-5-6,75,60,46,48,42,37,71,49,34,30.06,30.02,29.98,10,10,10,14,7,18,0.00,0,,76
2013-5-7,78,64,50,52,48,40,75,55,38,30.06,30.02,29.99,10,10,10,16,5,22,0.00,1,,64
2013-5-8,82,68,54,55,49,44,81,57,31,30.02,29.98,29.94,10,10,10,12,3,20,0.00,4,Rain,41
2013-5-9,82,65,48,55,49,45,88,64,30,29.97,29.94,29.89,10,7,0,12,2,,0.00,2,Fog,135
2013-5-10,75,60,46,61,54,37,88,74,55,29.91,29.80,29.75,10,8,2,17,10,26,0.30,7,Rain,240
2013-5-11,64,53,39,47,40,31,83,70,45,29.91,29.85,29.74,10,10,5,25,10,32,0.03,7,Rain,287
2013-5-12,53,44,37,33,28,23,77,56,38,30.10,29.97,29.88,10,10,10,26,14,37,0.00,5,,281
2013-5-13,57,44,30,31,24,19,76,49,24,30.18,30.14,30.11,10,10,10,14,6,20,0.00,1,,302
2013-5-14,81,62,45,54,40,30,64,48,31,30.11,29.90,29.73,10,10,10,16,8,22,0.00,4,Rain,160
2013-5-15,86,70,55,58,48,41,80,45,25,29.80,29.69,29.59,10,10,9,26,9,34,0.00,0,,282
2013-5-16,86,68,52,49,44,37,74,42,23,30.02,29.87,29.78,10,10,10,20,7,26,0.00,0,,315
2013-5-17,77,62,48,44,41,35,69,45,29,30.15,30.10,30.03,10,10,10,14,8,18,0.00,2,Rain,68
2013-5-18,84,68,55,48,44,40,62,45,27,30.15,30.10,30.04,10,10,10,13,8,17,0.00,2,,88
2013-5-19,88,72,55,63,55,44,72,57,39,30.05,29.97,29.90,10,10,10,14,4,17,0.00,0,,128
2013-5-20,93,77,61,68,62,57,87,61,33,29.95,29.87,29.78,10,9,5,21,7,31,0.00,1,,188
2013-5-21,89,80,71,66,61,56,76,56,34,29.82,29.76,29.71,10,10,8,18,9,26,0.00,2,Rain,223
2013-5-22,86,75,64,63,61,56,81,68,40,29.74,29.70,29.62,10,10,9,24,10,37,0.10,4,Rain,206
2013-5-23,69,57,45,59,49,37,87,78,68,30.15,29.88,29.70,10,8,2,18,11,28,0.21,7,Rain,325
2013-5-24,59,50,42,40,34,30,82,60,40,30.35,30.29,30.16,10,10,9,14,8,24,0.00,3,,350
2013-5-25,69,52,37,39,35,32,86,54,30,30.41,30.34,30.29,10,10,5,10,4,,0.00,0,,19
2013-5-26,73,56,39,39,34,30,86,47,23,30.35,30.30,30.23,10,10,10,9,2,,0.00,0,,24
2013-5-27,63,54,45,50,44,34,88,73,41,30.27,30.15,30.02,10,7,2,12,5,38,0.77,5,Rain,95
2013-5-28,82,68,54,70,59,50,88,80,62,30.00,29.91,29.81,10,5,2,20,7,29,0.15,7,Rain,135
2013-5-29,88,78,70,66,63,60,78,61,43,29.99,29.92,29.81,10,10,10,23,13,34,0.00,2,,228
2013-5-30,90,77,64,72,65,60,87,70,45,30.06,30.02,29.98,10,9,2,28,8,36,0.20,2,Rain,196
2013-5-31,84,76,69,68,66,64,84,74,55,30.00,29.93,29.87,10,9,1,21,9,30,0.48,3,Rain,196